GW3518 Weather Reports


Display with metric or nautical units.
time (UTC)temp
F
wind
direction
speed
MPH
gust
MPH
rain 1hr
in
rain 24hr
in
rain mn
in
humidity
%
barometer
mb
20260502194647 49 249 0.0 0.0 0.00 0.22 0.22 90 1009.0
20260502194139 48 242 0.0 0.0 0.00 0.22 0.22 88 1008.8
20260502193635 48 162 0.0 0.0 0.00 0.22 0.22 94 1009.3
20260502193132 48 162 0.0 0.0 0.00 0.22 0.22 94 1009.2
20260502192627 48 161 0.0 0.0 0.00 0.22 0.22 95 1009.2
20260502192125 48 161 0.0 0.0 0.00 0.22 0.22 96 1009.2
20260502191622 48 160 0.0 0.0 0.00 0.22 0.22 91 1009.4
20260502191120 48 160 0.0 0.0 0.00 0.22 0.22 94 1009.2
20260502190617 47 160 0.0 0.0 0.00 0.22 0.22 92 1009.3
20260502190115 47 160 0.0 0.0 0.00 0.22 0.22 94 1009.2
20260502185609 47 161 0.0 0.0 0.00 0.22 0.22 92 1009.6
20260502185106 48 121 0.0 0.0 0.00 0.22 0.22 94 1009.6
20260502184602 48 122 0.0 1.0 0.00 0.22 0.22 92 1009.5
20260502184057 47 133 0.0 1.0 0.00 0.22 0.22 94 1009.5
20260502183554 47 151 0.0 1.0 0.00 0.22 0.22 95 1009.7
20260502183050 46 151 0.0 0.0 0.00 0.22 0.22 96 1009.6
20260502182546 46 150 0.0 0.0 0.00 0.22 0.22 98 1009.8
20260502182042 45 151 0.0 0.0 0.12 0.22 0.22 99 1009.9
20260502181539 45 150 0.0 0.0 0.24 0.22 0.22 99 1009.8
20260502181038 45 151 0.0 0.0 0.24 0.21 0.21 99 1009.8
20260502180534 45 151 0.0 0.0 0.05 0.18 0.18 99 1010.0
20260502170447 46 39 0.0 0.0 0.00 0.08 0.08 97 1009.5
20260502163924 45 39 0.0 0.0 0.00 0.08 0.08 94 1009.5
20260502163421 46 39 0.0 0.0 0.00 0.08 0.08 96 1009.6
20260502162919 45 39 0.0 0.0 0.00 0.08 0.08 95 1009.7
20260502162416 45 39 0.0 0.0 0.00 0.08 0.08 98 1009.7
20260502161913 44 39 0.0 0.0 0.00 0.08 0.08 98 1009.8
20260502161408 45 39 1.0 1.0 0.07 0.08 0.08 98 1009.7
20260502160907 45 39 0.0 0.0 0.12 0.08 0.08 98 1009.9
20260502160405 45 37 0.0 0.0 0.12 0.07 0.07 97 1009.9
20260502151844 46 36 0.0 0.0 0.00 0.05 0.05 95 1009.9
20260502151340 45 36 0.0 0.0 0.00 0.05 0.05 95 1010.3
20260502150838 45 36 0.0 0.0 0.00 0.05 0.05 95 1010.1
20260502150334 45 36 0.0 0.0 0.00 0.05 0.05 95 1010.3
20260502130722 42 69 0.0 0.0 0.00 0.05 0.05 98 1011.0
20260502130220 42 69 0.0 0.0 0.00 0.05 0.05 97 1010.8
20260502123706 41 69 0.0 0.0 0.00 0.05 0.05 98 1010.6
20260502123202 41 69 0.0 0.0 0.00 0.05 0.05 98 1010.9
20260502122659 41 69 0.0 0.0 0.00 0.05 0.05 98 1010.9
20260502122155 41 69 0.0 0.0 0.00 0.05 0.05 99 1010.9
20260502121653 41 69 0.0 0.0 0.00 0.05 0.05 99 1010.7
20260502121145 41 69 0.0 0.0 0.00 0.05 0.05 99 1010.7
20260502120641 41 69 0.0 0.0 0.00 0.05 0.05 99 1010.5
20260502120138 41 69 0.0 0.0 0.00 0.05 0.05 99 1010.7
20260502115636 41 69 0.0 0.0 0.00 0.05 0.05 99 1010.7
20260502115132 41 69 0.0 0.0 0.00 0.05 0.05 99 1010.8
20260502114628 41 69 0.0 0.0 0.00 0.05 0.05 99 1010.8
20260502114126 40 69 0.0 0.0 0.00 0.05 0.05 99 1010.8
20260502113623 40 69 0.0 0.0 0.05 0.05 0.05 99 1010.6
20260502113121 40 69 0.0 0.0 0.05 0.05 0.05 99 1011.0
20260502112619 40 69 0.0 0.0 0.00 0.04 0.04 99 1010.8
20260502112116 40 69 0.0 0.0 0.00 0.04 0.04 99 1011.0
20260502111613 40 69 0.0 0.0 0.00 0.04 0.04 99 1010.7
20260502111110 40 69 0.0 0.0 0.00 0.04 0.04 99 1010.9
20260502110608 40 69 0.0 0.0 0.00 0.04 0.04 99 1010.8
20260502110106 40 69 0.0 0.0 0.00 0.04 0.04 99 1010.8
20260502105603 40 69 0.0 0.0 0.00 0.04 0.04 99 1010.7
20260502105100 40 69 0.0 0.0 0.00 0.04 0.04 99 1010.5
20260502104557 40 69 0.0 0.0 0.00 0.04 0.04 99 1010.4
20260502104054 40 69 0.0 0.0 0.00 0.04 0.04 99 1010.5
20260502103552 40 69 0.0 0.0 0.00 0.04 0.04 99 1010.3
20260502103050 40 69 0.0 0.0 0.00 0.04 0.04 99 1010.2
20260502102546 40 68 0.0 0.0 0.00 0.04 0.04 99 1010.2
20260502102043 40 68 0.0 0.0 0.00 0.04 0.04 99 1010.5
20260502101541 40 68 0.0 0.0 0.00 0.04 0.04 99 1010.4
20260502101039 40 68 0.0 0.0 0.00 0.04 0.04 99 1010.4
20260502100537 40 68 0.0 0.0 0.00 0.04 0.04 99 1010.4
20260502091512 40 68 0.0 0.0 0.00 0.03 0.03 99 1010.4
20260502091009 40 68 0.0 0.0 0.00 0.03 0.03 99 1010.4
20260502090506 40 68 0.0 0.0 0.00 0.03 0.03 99 1010.4
20260502071401 40 69 0.0 0.0 0.07 0.01 0.01 95 1010.6
20260502070859 40 69 0.0 0.0 0.07 0.01 0.01 95 1010.6
20260502070356 40 69 0.0 0.0 0.00 0.00 0.00 95 1010.6
20260502065855 40 69 0.0 0.0 0.00 0.00 0.00 95 1010.7
20260502065353 40 69 0.0 0.0 0.00 0.00 0.00 94 1010.9
20260502064851 40 69 0.0 0.0 0.00 0.00 0.00 94 1010.9
20260502064348 40 69 0.0 0.0 0.00 0.00 0.00 95 1010.8
20260502063845 40 69 0.0 0.0 0.00 0.00 0.00 95 1010.9
20260502063343 40 69 0.0 0.0 0.00 0.00 0.00 94 1010.8
20260502062840 41 69 0.0 0.0 0.00 0.00 0.00 93 1010.8
20260502062337 41 69 0.0 0.0 0.00 0.00 0.00 92 1010.9
20260502061836 41 69 0.0 0.0 0.00 0.00 0.00 92 1010.8
20260502061333 41 69 0.0 0.0 0.00 0.00 0.00 90 1011.0
20260502060828 41 69 0.0 0.0 0.00 0.00 0.00 89 1011.1
20260502060323 41 69 0.0 0.0 0.00 0.00 0.00 88 1011.2
20260502055821 41 69 0.0 0.0 0.00 0.00 0.00 87 1011.0
20260502055319 41 69 0.0 0.0 0.00 0.00 0.00 85 1010.9
20260502054814 41 69 0.0 0.0 0.00 0.00 0.00 84 1010.9
20260502054311 41 69 0.0 0.0 0.00 0.00 0.00 86 1011.0
20260502053808 41 69 0.0 0.0 0.00 0.00 0.00 87 1011.0
20260502053305 41 69 0.0 0.0 0.00 0.00 0.00 88 1010.7
20260502052803 41 69 0.0 0.0 0.00 0.00 0.00 86 1011.2
20260502052301 41 69 0.0 0.0 0.00 0.00 0.00 87 1010.8
20260502051758 41 69 0.0 0.0 0.00 0.00 0.00 86 1010.8
20260502051257 41 69 0.0 0.0 0.00 0.00 0.00 85 1010.7
20260502050753 41 69 0.0 0.0 0.00 0.00 0.00 85 1010.9
20260502050249 41 69 0.0 0.0 0.00 0.00 0.00 86 1010.7
20260502045746 41 69 0.0 0.0 0.00 0.00 0.00 85 1010.7
20260502045243 41 69 0.0 0.0 0.00 0.00 0.00 85 1010.7
20260502044740 41 69 0.0 0.0 0.00 0.00 0.00 84 1010.5
20260502044236 41 69 0.0 0.0 0.00 0.00 0.00 84 1010.6
20260502043733 41 69 0.0 0.0 0.00 0.00 0.00 85 1010.6
20260502043231 41 69 0.0 0.0 0.00 0.00 0.00 83 1010.7
20260502042730 41 69 0.0 0.0 0.00 0.00 0.00 83 1010.6
20260502042228 41 69 0.0 0.0 0.00 0.00 0.00 82 1010.7
20260502041725 41 68 0.0 0.0 0.00 0.00 0.00 81 1010.5
20260502041223 41 68 0.0 0.0 0.00 0.00 0.00 81 1010.6
20260502040719 41 69 0.0 0.0 0.00 0.00 0.00 86 1010.6
20260502040216 40 69 0.0 0.0 0.00 0.00 0.00 85 1010.7
20260502035712 41 69 0.0 0.0 0.00 0.00 0.00 85 1010.6
20260502035209 40 69 0.0 0.0 0.00 0.00 0.00 84 1010.6
20260502034707 40 69 0.0 0.0 0.00 0.00 0.00 83 1010.7
20260502034205 40 69 0.0 0.0 0.00 0.00 0.00 83 1010.7
20260502033703 40 69 0.0 0.0 0.00 0.00 0.00 81 1010.6
20260502033200 40 69 0.0 0.0 0.00 0.00 0.00 81 1010.6
20260502032656 40 69 0.0 0.0 0.00 0.00 0.00 79 1010.6
20260502032152 40 69 0.0 0.0 0.00 0.00 0.00 79 1010.5
20260502031650 41 69 0.0 0.0 0.00 0.00 0.00 78 1010.5
20260502031148 41 69 0.0 0.0 0.00 0.00 0.00 77 1010.4
20260502030647 41 69 0.0 0.0 0.00 0.00 0.00 75 1010.6
20260502030144 41 69 0.0 0.0 0.00 0.00 0.00 75 1010.5
20260502025641 41 69 0.0 0.0 0.00 0.00 0.00 74 1010.4
20260502025139 42 69 0.0 0.0 0.00 0.00 0.00 74 1010.3
20260502024637 42 69 0.0 0.0 0.00 0.00 0.00 70 1010.4
20260502024135 42 69 0.0 0.0 0.00 0.00 0.00 70 1010.5
20260502023633 42 69 0.0 0.0 0.00 0.00 0.00 70 1010.3
20260502023130 42 69 0.0 0.0 0.00 0.00 0.00 70 1010.2
20260502022626 43 69 0.0 0.0 0.00 0.00 0.00 69 1010.3
20260502022123 43 69 0.0 0.0 0.00 0.00 0.00 69 1010.2
20260502021620 43 69 0.0 0.0 0.00 0.00 0.00 71 1010.4
20260502021118 43 69 0.0 0.0 0.00 0.00 0.00 70 1010.4
20260502020615 44 69 0.0 0.0 0.00 0.00 0.00 69 1010.4
20260502020112 44 69 0.0 0.0 0.00 0.00 0.00 70 1010.4
20260502015610 44 69 0.0 0.0 0.00 0.00 0.00 68 1010.3
20260502015106 44 69 0.0 0.0 0.00 0.00 0.00 70 1010.4
20260502014603 44 69 0.0 0.0 0.00 0.00 0.00 72 1010.4
20260502014100 44 69 0.0 0.0 0.00 0.00 0.00 72 1010.4
20260502013555 44 69 0.0 0.0 0.00 0.00 0.00 69 1010.6
20260502013052 44 69 0.0 0.0 0.00 0.00 0.00 65 1010.2
20260502012550 46 69 0.0 0.0 0.00 0.00 0.00 68 1010.2
20260502012047 45 69 0.0 0.0 0.00 0.00 0.00 64 1010.3
20260502011544 46 69 0.0 0.0 0.00 0.00 0.00 66 1010.2
20260502011040 46 69 0.0 0.0 0.00 0.00 0.00 62 1010.4
20260502010538 46 69 0.0 0.0 0.00 0.00 0.00 61 1010.3
20260502010033 46 69 0.0 0.0 0.00 0.00 0.00 57 1009.9
20260502005532 46 69 0.0 0.0 0.00 0.00 0.00 60 1010.0
20260502005029 47 69 0.0 0.0 0.00 0.00 0.00 59 1010.0
20260502004524 47 69 0.0 0.0 0.00 0.00 0.00 63 1010.0
20260502004021 47 69 0.0 0.0 0.00 0.00 0.00 63 1009.8
20260502003520 47 69 0.0 0.0 0.00 0.00 0.00 61 1009.8
20260502003016 48 69 0.0 0.0 0.00 0.00 0.00 62 1009.8
20260502002513 48 69 0.0 0.0 0.00 0.00 0.00 56 1009.6
20260502002010 48 69 0.0 0.0 0.00 0.00 0.00 55 1009.5
20260502001508 48 69 0.0 0.0 0.00 0.00 0.00 56 1009.6
20260502001005 48 69 0.0 0.0 0.00 0.00 0.00 55 1009.6
20260502000503 48 69 0.0 0.0 0.00 0.00 0.00 56 1009.4
20260501235959 48 69 0.0 0.0 0.00 0.00 0.00 53 1009.4
20260501235455 48 69 0.0 0.0 0.00 0.00 0.00 54 1009.2
20260501234950 48 69 0.0 0.0 0.00 0.00 0.00 54 1009.3
20260501234447 49 69 0.0 0.0 0.00 0.00 0.00 54 1009.1
20260501233946 49 69 0.0 0.0 0.00 0.00 0.00 56 1009.1
20260501233443 49 69 0.0 0.0 0.00 0.00 0.00 62 1009.1
20260501232939 49 69 0.0 0.0 0.00 0.00 0.00 54 1008.9
20260501232436 50 69 0.0 0.0 0.00 0.00 0.00 50 1008.9
20260501231933 50 69 0.0 0.0 0.00 0.00 0.00 51 1008.8
20260501231432 50 69 0.0 0.0 0.00 0.00 0.00 54 1008.9
20260501230929 50 69 0.0 0.0 0.00 0.00 0.00 50 1008.7
20260501230428 50 69 0.0 0.0 0.00 0.00 0.00 51 1008.7
20260501225925 50 69 0.0 0.0 0.00 0.00 0.00 50 1008.8
20260501225423 50 69 0.0 0.0 0.00 0.00 0.00 51 1008.7
20260501224918 51 69 0.0 0.0 0.00 0.00 0.00 53 1008.6
20260501224416 51 69 0.0 0.0 0.00 0.00 0.00 52 1008.6
20260501223912 51 69 0.0 0.0 0.00 0.00 0.00 52 1008.6
20260501223409 51 69 0.0 0.0 0.00 0.00 0.00 51 1008.5
20260501222904 52 69 0.0 0.0 0.00 0.00 0.00 47 1008.6
20260501222402 53 69 0.0 0.0 0.00 0.00 0.00 51 1008.5
20260501221858 53 69 0.0 0.0 0.00 0.00 0.00 45 1008.6
20260501221355 53 69 0.0 0.0 0.00 0.00 0.00 45 1008.6
20260501220854 54 69 1.0 1.0 0.00 0.00 0.00 43 1008.5
20260501220350 54 40 0.0 1.0 0.00 0.00 0.00 40 1008.6
20260501215847 54 44 0.0 0.0 0.00 0.00 0.00 44 1008.7
20260501215343 54 54 1.0 1.0 0.00 0.00 0.00 44 1008.6
20260501214839 54 57 0.0 0.0 0.00 0.00 0.00 43 1008.4
20260501214334 54 57 0.0 0.0 0.00 0.00 0.00 46 1008.4
20260501213830 55 57 1.0 1.0 0.00 0.00 0.00 43 1008.4
20260501213326 53 220 0.0 0.0 0.00 0.00 0.00 41 1008.5
20260501212817 53 220 0.0 0.0 0.00 0.00 0.00 43 1008.3
20260501212314 53 192 0.0 1.0 0.00 0.00 0.00 41 1008.5
20260501211811 54 304 0.0 0.0 0.00 0.00 0.00 42 1008.3
20260501211308 55 68 0.0 1.0 0.00 0.00 0.00 38 1008.3
20260501210805 55 289 2.0 2.0 0.00 0.00 0.00 40 1008.3
20260501210302 55 194 1.0 1.0 0.00 0.00 0.00 39 1008.2
20260501205758 55 319 0.0 0.0 0.00 0.00 0.00 42 1008.1
20260501205255 55 295 1.0 1.0 0.00 0.00 0.00 39 1008.1
20260501204752 55 303 1.0 2.0 0.00 0.00 0.00 40 1008.0
20260501204249 55 102 0.0 0.0 0.00 0.00 0.00 43 1008.2
20260501203745 56 150 0.0 1.0 0.00 0.00 0.00 40 1008.3
20260501203243 55 332 1.0 1.0 0.00 0.00 0.00 39 1008.2
20260501202739 55 37 1.0 1.0 0.00 0.00 0.00 43 1008.1
20260501202236 55 118 0.0 1.0 0.00 0.00 0.00 41 1008.2
20260501201733 55 51 1.0 1.0 0.00 0.00 0.00 41 1008.3
20260501201230 55 67 0.0 1.0 0.00 0.00 0.00 38 1008.4
20260501200727 55 309 1.0 2.0 0.00 0.00 0.00 38 1008.4
20260501200224 55 113 1.0 1.0 0.00 0.00 0.00 36 1008.1
20260501195721 55 326 0.0 0.0 0.00 0.00 0.00 38 1008.5
20260501195217 55 63 0.0 0.0 0.00 0.00 0.00 38 1008.3